Regional Weather Roundup
Issued by NWS

Home | Current Version | Previous Version | Text Only | Print | Product List | Glossary Off
Versions: 1 2 3 4 5 6 7 8 9 10 11 12 13 14 15 16 17 18 19 20 21 22 23 24 25 26 27 28 29 30 31 32 33 34 35 36 37 38 39 40 41 42 43 44 45 46 47 48 49 50

000
ASUS43 KIND 292009
RWRIN

WEATHER ROUNDUP FOR INDIANA
NATIONAL WEATHER SERVICE INDIANAPOLIS IN
400 PM EDT SUN MAY 29 2016

NOTE: "FAIR" INDICATES FEW OR NO CLOUDS BELOW 12,000 FEET WITH NO
SIGNIFICANT WEATHER AND/OR OBSTRUCTIONS TO VISIBILITY.

* - STATION DOES NOT REPORT WEATHER SUCH AS PRECIPITATION OR FOG.

+ - STATION NOT QUALITY CONTROLLED BY THE NATIONAL WEATHER SERVICE.
    USE DATA WITH CAUTION...ESPECIALLY DEWPOINT AND RELATIVE
    HUMIDITY OBSERVATIONS.

INZ001>003-010>013-019-020-292100-
NORTHWEST INDIANA

CITY           SKY/WX    TMP DP  RH WIND       PRES   REMARKS
GARY /AIRPORT/ MOSUNNY   82  64  54 W17G29    30.02F
KNOX *+          N/A     82  37  20 W17G25    30.00S
LA PORTE +     MOSUNNY   84  58  41 W10G23    30.01F
MICHIGAN CITY+ MOSUNNY   79  59  50 W12G22    30.02S
MONTICELLO +   MOSUNNY   86  46  24 W18G25    30.01F
RENSSELAER +   MOSUNNY   82  54  36 SW14G23   30.03S
VALPARAISO     SUNNY     83  56  39 W16G28    30.02S

$$

LMZ046-743>745-292100-
SOUTHERN LAKE MICHIGAN

STATION/POSITION TIME  TEMP    WIND        PRES    WAVE
                       AIR SEA DIR/SP/G            HT
                 (UTC) (F)     (DEG/KT/KT) (MB)    (FT)
BURNS HARBOR     1900   68     280/ 13/ 24 1016.6S
MICHIGAN CITY    1900   63     210/  7/  8   N/A
5NW MICH CITY    2000   63 58  280/  8/ 10   N/A     2

$$

INZ004-005-014>016-021>024-292100-
NORTH CENTRAL INDIANA

CITY           SKY/WX    TMP DP  RH WIND       PRES   REMARKS
ELKHART        MOSUNNY   82  61  47 MISG      30.00F
GOSHEN         MOSUNNY   84  54  35 SW16G24   30.00F
LOGANSPORT +   PTSUNNY   82  54  36 W20G25    30.03F
PERU/GRISSOM   SUNNY     85  55  35 W20G26    30.01F
ROCHESTER +    SUNNY     88  54  31 W15G24    30.02S
SOUTH BEND     PTSUNNY   80  59  48 W13G21    30.00S
WARSAW +       MOSUNNY   84  54  34 W16G22    30.01F

$$

INZ006>009-017-018-025>027-292100-
NORTHEAST INDIANA

CITY           SKY/WX    TMP DP  RH WIND       PRES   REMARKS
ANGOLA *+        N/A     88  84  89 W13       29.99F HX 112
AUBURN +       SUNNY     86  52  30 W16G22    30.00F
FORT WAYNE     PTSUNNY   88  56  33 W22       30.00F
HUNTINGTON +   SUNNY     84  57  38 W13G22    30.01F

$$

INZ028-029-035-036-043>045-051>053-292100-
WEST CENTRAL INDIANA

CITY           SKY/WX    TMP DP  RH WIND       PRES   REMARKS
CRAWFORDSVL +  MOSUNNY   84  55  37 W16       30.04F
GREENCASTLE +  MOSUNNY   82  68  61 W3        30.05F
LAFAYETTE      MOSUNNY   85  55  35 W17       30.02F
TERRE HAUTE    MOSUNNY   85  60  42 W14       30.05F

$$

INZ030>032-037>040-046>048-054>057-064-065-292100-
CENTRAL INDIANA

CITY           SKY/WX    TMP DP  RH WIND       PRES   REMARKS
CP ATTERBURY + SUNNY     84  63  48 SW5       30.05F
COLUMBUS       MOSUNNY   86  63  45 W12       30.05F
FISHERS *+     MOSUNNY   82  68  61 N3        30.04F
FRANKFORT +      N/A     86  33  14 W15G22    30.06S
GREENWOOD *+   MOSUNNY   84  63  48 SW6       30.04F
INDIANAPOLIS   PTSUNNY   85  63  47 SW12      30.03F
-EAGLE CREEK   MOSUNNY   84  63  49 W10       30.03F
KOKOMO *+      MOSUNNY   86  61  42 W14G23    30.02F
MARION +       CLOUDY    86  57  37 W17       30.02F
SHELBYVILLE    SUNNY     88  60  38 W10G21    30.02F
ZIONSVILLE +   MOSUNNY   83  61  47 W12G18    30.05F

$$

INZ033-034-041-042-049-050-058-059-292100-
EAST CENTRAL INDIANA

CITY           SKY/WX    TMP DP  RH WIND       PRES   REMARKS
MUNCIE         MOSUNNY   88  59  37 SW9G18    30.02F

$$

INZ060-061-067>069-081>083-085>088-292100-
SOUTHWEST INDIANA

CITY           SKY/WX    TMP DP  RH WIND       PRES   REMARKS
EVANSVILLE     TSTM      78  68  71 W16G26    30.06F
HUNTINGBURG *+ MOSUNNY   86  64  48 SW7       30.05F
WASHINGTON +   CLOUDY    73  63  70 S10       30.05F

$$

INZ062-063-066-070>080-084-089>092-292100-
SOUTH CENTRAL AND SOUTHEAST INDIANA

CITY           SKY/WX    TMP DP  RH WIND       PRES   REMARKS
BEDFORD +      MOSUNNY   82  73  74 SW9       30.04F
BLOOMINGTON    MOSUNNY   82  65  56 S9        30.04F
MADISON *+     MOSUNNY   86  63  45 S6        30.07F
NORTH VERNON + MOSUNNY   86  70  58 SW5       30.05F
SEYMOUR +      MOSUNNY   88  64  45 SW8G20    30.03F

$$





USA.gov is the U.S. government's official web portal to all federal, state and local government web resources and services.